Location: Normandy Village
(37.8755°N, 122.2655°W)
Time: 03:23:38
(UTC+00:00)

ATLAS 3B R/B - Pass Details

Date: 09 December 2019
Orbit: 1027 x 1168 km, 63.8° (Epoch: 19 January)

Event Time Altitude Azimuth Distance (km) Brightness Sun altitude
Rises 02:35:12 0° 312° (NW) 3,819 6.1 -20.2°
Reaches altitude 10° 02:38:28 10° 298° (WNW) 2,880 5.6 -20.8°
Maximum altitude 02:43:18 21° 252° (WSW) 2,201 5.2 -21.8°
Drops below altitude 10° 02:48:14 10° 206° (SSW) 2,938 5.5 -22.7°
Sets 02:51:38 0° 191° (S) 3,917 5.9 -23.4°
